Theta_e
288 291 291 290 289 290 287 287 283 286 287 291 296 297 299 301 304 306 306 309 310 310 312 311 314 317 315 315 318 316 314 314 314 315 318 327 328 328 328 326 325 324 323 323
285 290 290 287 290 290 289 289 290 290 290 297 298 299 300 303 305 304 303 308 309 313 313 314 315 315 316 314 314 316 313 313 314 315 316 317 321 326 328 327 327 324 323 322
278 288 288 282 288 289 290 292 291 286 291 296 296 297 298 301 303 304 304 305 308 311 313 313 313 314 313 314 315 313 312 312 313 313 314 315 316 319 323 322 321 323 321 321
277 284 271 287 295 295 292 293 293 293 295 296 295 297 298 301 299 303 304 305 305 306 310 310 311 312 312 312 312 312 311 311 312 312 312 312 314 313 317 317 319 322 322 322
279 278 285 289 293 292 289 288 295 293 294 295 296 296 297 304 305 303 306 307 307 308 307 309 309 310 311 310 309 310 309 310 310 311 310 310 310 310 311 313 314 315 318 319
285 279 276 286 295 297 295 281 295 297 295 294 296 289 291 300 301 301 306 307 307 308 308 307 307 310 310 308 309 307 308 309 309 309 308 307 308 308 309 311 313 315 315 315
280 281 284 293 296 297 282 282 295 295 295 295 293 296 297 300 301 301 301 302 302 303 303 303 306 307 305 304 304 307 308 308 307 306 305 305 304 304 304 306 307 308 310 310
281 277 276 296 295 287 293 295 296 295 295 294 296 297 298 299 299 300 300 301 302 301 300 301 304 303 301 300 303 304 304 304 303 303 304 305 301 301 302 302 303 304 305 307
285 282 292 297 293 297 296 293 294 295 295 296 296 295 296 296 297 298 299 299 300 299 298 298 300 299 297 298 301 302 301 300 301 302 302 302 301 301 302 301 301 301 302 303
285 289 292 294 296 297 296 295 296 298 297 296 295 295 295 296 296 296 297 298 297 296 296 296 297 298 298 298 299 298 297 298 299 300 301 302 303 301 300 300 300 301 301 301
288 291 294 294 296 296 297 299 298 299 298 296 294 293 292 292 292 293 294 295 295 295 294 295 296 296 297 297 298 296 296 297 298 299 299 299 300 299 299 301 301 301 302 302
286 293 291 292 296 298 298 297 298 297 297 297 294 292 292 292 293 292 292 293 293 293 293 293 295 295 296 297 297 296 295 296 296 297 297 297 297 297 296 295 295 295 294 296
291 295 294 296 298 300 298 298 299 298 296 296 296 293 293 293 293 294 293 292 292 292 293 293 293 293 295 296 296 295 295 295 295 295 295 295 295 295 294 296 295 294 294 294
297 297 295 297 296 299 297 298 299 298 296 296 295 295 294 293 292 290 289 290 291 291 291 292 292 293 295 296 296 295 295 295 295 295 296 296 296 295 295 294 294 295 295 294
299 299 297 298 296 295 296 296 295 294 294 293 293 292 292 289 289 289 290 291 291 291 292 293 292 293 295 295 295 294 293 293 294 295 295 295 296 296 296 295 295 295 297 296
298 298 296 294 294 295 295 294 293 293 292 291 291 290 290 290 290 291 291 291 289 288 290 291 291 292 293 293 292 291 291 291 291 292 293 294 295 295 295 296 296 296 296 297
292 292 294 293 293 294 294 294 293 293 291 290 289 290 291 290 289 289 289 289 289 289 290 290 290 291 291 290 289 289 289 290 289 291 292 292 293 293 294 295 296 296 297 298
296 295 295 295 295 294 294 294 294 293 290 290 291 291 290 288 287 287 287 288 289 289 289 289 289 289 289 289 289 289 289 290 291 292 293 293 293 294 295 295 296 298 298 299
297 296 296 297 297 296 294 293 293 294 292 292 292 290 290 289 288 288 288 286 286 286 287 288 289 288 288 289 289 289 290 290 291 292 293 293 295 295 296 296 297 298 300 300
296 297 297 297 299 296 295 295 296 294 294 293 293 291 289 289 289 288 288 287 288 287 288 287 288 287 287 288 288 290 292 293 293 293 294 295 297 298 298 295 299 300 300 302
296 297 296 296 296 298 297 296 295 292 293 293 291 288 287 288 291 290 288 287 288 290 289 289 288 286 287 286 289 292 293 294 298 300 298 298 299 300 301 302 302 301 302 305
296 297 296 296 296 297 297 297 296 294 293 294 292 289 288 288 290 290 291 289 290 288 289 288 287 285 285 286 288 289 290 292 294 300 304 305 304 304 304 304 304 304 304 304
298 298 298 296 296 296 296 296 297 296 294 292 288 288 288 287 288 288 287 291 291 288 290 288 286 285 284 287 287 287 288 290 291 294 299 302 302 303 303 303 303 303 303 302
299 298 298 298 297 296 295 295 295 296 296 295 291 287 287 289 290 293 293 291 289 289 289 287 286 285 285 286 286 286 288 288 290 292 296 294 299 299 299 300 301 301 301 299
299 299 298 297 295 294 294 295 294 293 296 295 294 294 293 293 291 291 293 292 290 289 290 288 287 286 286 286 286 286 287 287 288 290 292 294 295 295 296 297 297 298 299 300
297 298 298 298 297 296 294 294 293 292 293 293 294 293 293 293 292 292 292 291 291 289 289 289 288 287 286 286 286 286 286 287 287 289 290 291 291 292 292 293 294 295 298 300
296 296 297 297 298 297 295 294 294 292 293 294 293 294 293 293 292 290 290 291 290 290 289 289 288 288 287 286 286 286 287 287 286 287 289 289 290 289 289 290 290 291 293 297
Wind_Speed
9 12 16 17 16 16 17 15 10 20 17 14 9 9 12 11 14 15 9 6 6 4 6 7 10 5 3 6 3 2 6 8 5 6 7 4 5 8 8 8 8 8 8 7
6 11 16 21 12 15 16 16 9 10 15 13 13 10 12 13 14 13 18 15 4 5 6 8 9 5 11 7 6 4 5 4 3 5 4 4 3 5 5 7 7 8 7 8
5 11 14 12 9 12 8 6 4 2 6 6 13 13 11 7 8 10 11 14 14 9 6 5 3 6 4 9 9 8 3 4 4 3 3 1 2 2 4 3 5 4 5 6
4 5 3 7 6 8 5 8 6 10 6 6 5 8 12 2 3 7 7 11 12 12 6 1 3 6 7 8 8 5 3 5 6 4 6 3 3 5 6 3 7 7 10 16
1 4 11 10 3 4 6 9 11 3 7 10 13 4 6 4 5 7 7 2 3 10 13 9 8 9 7 8 7 7 4 6 6 7 6 4 5 6 5 5 6 7 7 11
2 4 3 3 7 4 1 5 13 10 12 11 12 8 5 5 4 6 5 7 8 8 10 13 10 8 11 15 15 7 7 8 7 4 3 3 2 4 4 5 6 5 6 6
4 5 6 7 6 3 1 6 11 9 10 11 6 6 13 12 11 8 4 6 6 4 5 4 5 4 5 6 6 5 6 6 6 5 4 4 4 2 3 5 5 6 6 6
5 3 3 4 4 2 4 8 7 7 11 15 11 14 14 13 11 10 8 7 9 10 7 6 5 5 6 5 6 7 6 6 6 5 5 5 6 6 5 7 10 10 10 10
7 5 8 3 4 3 6 4 5 6 7 9 12 12 12 12 11 11 11 8 7 9 9 7 5 3 5 4 6 5 6 6 6 6 6 6 6 7 7 7 8 9 10 11
6 5 7 7 5 7 4 5 8 11 9 7 9 10 12 12 12 13 13 14 11 11 12 12 7 6 7 6 6 7 10 11 10 11 11 11 9 9 10 11 11 12 12 12
10 6 14 7 9 7 12 11 10 12 11 8 10 7 6 10 12 12 13 13 12 12 12 13 11 11 11 13 12 12 12 12 12 11 12 11 12 11 12 13 12 12 11 11
4 9 8 12 11 14 14 13 13 12 12 6 5 6 6 9 11 13 14 14 14 15 16 16 15 15 14 13 13 14 14 12 11 10 10 10 11 11 15 17 17 18 17 14
6 7 7 9 15 13 11 13 10 8 7 6 10 6 8 13 13 17 15 15 15 16 15 15 16 16 15 14 13 15 14 14 11 13 11 11 11 11 12 12 20 24 25 26
8 8 11 6 12 12 7 8 7 5 3 4 6 9 10 13 14 14 15 15 15 15 16 15 16 17 15 14 13 14 14 20 12 12 11 11 11 12 11 11 12 11 17 22
9 9 10 8 7 7 5 6 8 7 7 7 7 9 11 13 14 15 15 15 15 15 15 14 15 16 13 13 14 14 12 11 12 11 10 13 12 12 12 12 12 12 11 12
12 8 6 7 8 8 6 7 7 7 7 8 10 11 12 13 14 14 14 14 14 13 15 15 15 14 13 14 14 12 13 20 18 12 11 11 10 12 12 12 12 12 11 13
5 7 5 7 8 7 9 6 7 6 8 9 11 12 13 13 14 13 14 14 14 15 15 14 15 15 15 15 15 11 10 11 14 12 12 11 11 12 12 12 12 12 13 12
7 6 7 7 5 6 6 6 6 5 5 8 11 12 13 13 13 14 15 15 14 13 12 12 14 15 16 16 14 11 10 11 10 11 10 12 12 11 11 12 12 12 11 10
6 7 8 5 5 4 3 4 5 4 6 7 11 12 12 11 12 13 13 13 12 14 15 16 21 20 15 15 16 10 10 12 11 11 11 13 11 11 11 11 11 11 10 10
6 7 7 7 5 4 4 1 4 5 5 7 10 12 14 13 13 13 13 12 12 11 17 15 16 14 15 15 18 10 9 10 12 12 11 10 10 10 10 12 11 11 11 11
5 7 6 6 5 3 4 2 4 3 6 6 9 12 12 13 14 13 12 11 16 17 16 17 14 12 12 14 12 9 9 10 11 7 9 9 9 9 9 9 10 10 10 10
3 6 6 5 4 3 4 4 4 2 5 7 8 10 12 14 14 13 12 13 12 20 12 12 13 19 15 16 10 11 11 11 10 10 6 2 2 3 3 4 4 3 4 4
3 4 5 6 5 3 5 5 2 2 3 5 6 9 12 10 9 11 13 17 14 16 12 13 20 22 21 12 11 12 14 14 11 11 9 8 6 5 4 4 3 3 2 1
4 3 4 3 6 5 5 4 6 4 4 3 5 4 4 10 9 10 11 15 20 18 14 15 19 21 18 12 12 12 12 12 12 11 10 12 9 8 8 7 5 4 3 4
4 2 3 3 4 3 5 4 5 6 2 3 4 5 5 8 9 11 12 13 19 17 14 20 23 21 13 13 13 13 12 12 11 11 11 10 10 9 9 8 7 6 5 4
4 2 2 3 2 3 3 5 3 4 5 4 2 3 4 5 9 10 11 15 15 17 14 14 15 15 14 14 14 14 12 13 13 12 13 12 11 11 10 10 10 9 7 6
2 6 5 5 4 4 4 5 4 4 5 7 5 3 4 5 8 12 13 13 14 14 14 14 14 17 15 15 15 15 14 13 16 13 12 11 11 11 11 10 10 10 10 9
Wind_Direction
255 266 277 283 299 307 300 289 276 296 294 320 21 353 353 341 333 338 261 203 183 192 129 95 21 333 350 320 125 12 33 63 44 31 4 297 191 177 173 168 176 178 183 203
292 289 285 289 301 291 286 290 321 341 317 6 330 344 346 359 8 8 10 346 318 217 188 126 111 27 352 326 328 37 20 24 35 51 14 15 2 279 183 179 191 177 201 192
272 276 292 295 262 273 289 353 19 326 267 316 335 340 325 353 360 8 7 7 5 20 47 49 87 115 126 311 315 319 343 317 337 340 284 289 307 292 204 150 243 308 266 218
263 322 261 247 342 38 338 293 10 321 318 336 310 304 308 75 354 334 345 4 345 332 343 82 216 236 207 205 223 247 298 321 298 292 276 277 254 234 227 226 212 202 218 245
205 207 291 306 38 35 38 303 292 15 340 316 318 306 307 226 239 240 244 224 239 286 326 320 313 310 281 259 265 245 230 253 256 262 274 313 299 276 249 209 218 215 208 217
218 267 251 309 75 90 260 265 10 352 314 310 329 308 276 310 320 313 277 222 228 235 225 240 251 215 241 244 252 238 235 228 235 255 318 340 331 352 336 332 296 280 257 238
222 228 247 64 16 302 286 271 328 342 322 313 309 280 296 313 323 315 326 313 313 288 278 296 334 342 331 338 341 338 352 350 4 9 5 315 298 292 308 314 324 310 296 277
7 343 300 240 48 31 264 276 263 269 283 289 293 301 302 311 317 309 296 304 307 297 281 277 286 296 298 304 309 314 316 308 308 295 281 279 274 271 263 262 271 274 276 276
195 228 257 81 206 229 225 264 274 267 290 297 304 309 317 313 310 321 315 307 308 302 295 283 293 335 301 261 291 304 306 288 275 260 245 245 256 268 270 253 254 263 263 263
321 323 351 330 357 324 354 286 285 298 278 265 280 296 297 303 309 310 307 306 311 311 306 299 303 297 270 299 308 291 276 269 265 261 263 263 252 250 256 256 257 253 253 260
302 323 340 321 316 309 305 302 296 296 285 262 267 276 308 313 306 302 303 302 300 298 295 290 293 292 293 290 288 277 273 273 270 266 264 262 255 251 249 247 244 250 252 249
280 297 268 291 299 299 297 299 300 289 295 272 324 318 311 306 305 304 300 300 297 290 286 286 286 283 281 278 277 274 271 268 263 261 258 253 253 257 243 244 249 254 258 254
258 275 286 296 302 302 305 303 307 295 292 316 325 310 329 310 306 300 298 292 288 288 286 285 282 278 276 273 270 265 263 262 260 253 250 248 245 246 254 248 238 241 243 247
312 323 315 301 294 299 351 349 346 345 349 329 2 333 315 301 301 298 295 293 290 287 285 282 278 275 274 269 266 267 264 261 255 252 248 243 241 244 244 248 253 250 237 236
302 307 287 304 2 357 354 342 344 345 4 358 341 316 312 306 301 296 294 292 291 289 288 290 289 286 285 279 270 265 260 257 257 257 253 249 248 244 240 239 240 245 246 237
287 282 327 358 339 331 344 352 355 356 1 332 322 317 308 302 303 305 306 308 307 304 302 299 295 294 296 290 281 273 265 260 252 255 254 252 247 245 243 240 237 238 240 240
349 350 3 345 330 22 24 25 8 2 341 330 315 310 314 315 311 312 314 312 305 302 299 299 300 300 296 289 280 272 266 260 246 247 244 244 243 241 241 241 239 235 240 237
24 13 333 313 60 43 16 10 353 341 324 311 319 322 323 321 316 315 314 312 309 306 309 304 303 300 296 287 275 266 260 256 250 246 242 237 236 236 234 233 239 237 237 236
26 337 320 58 84 63 28 4 335 315 319 314 326 330 326 324 321 316 313 314 317 325 325 320 309 308 302 297 294 279 266 259 251 243 240 241 239 228 231 230 233 235 236 228
7 333 349 66 109 100 66 25 358 358 320 311 331 339 340 339 336 331 329 333 332 321 319 315 319 321 319 312 310 292 271 260 250 240 232 231 231 233 224 226 233 230 230 230
17 339 10 63 47 83 164 179 67 352 318 328 353 344 334 335 342 338 341 344 342 338 331 338 340 336 329 324 322 329 327 321 311 231 219 220 228 229 228 227 228 227 232 232
29 357 18 35 33 70 39 104 143 218 335 353 3 356 354 351 345 348 358 354 342 343 344 351 346 343 339 338 342 347 347 348 353 358 29 35 221 238 244 234 230 219 214 221
8 24 20 24 10 33 71 4 138 107 49 11 349 2 3 344 343 352 352 350 353 346 355 357 350 350 349 355 352 356 1 360 359 2 2 17 20 21 13 10 17 11 43 118
348 70 33 59 13 19 74 5 13 42 103 71 14 329 352 2 359 2 354 348 353 354 359 357 357 356 0 359 2 4 1 1 10 3 10 17 20 23 19 12 17 15 19 35
342 121 46 59 36 25 23 107 19 358 56 95 38 0 24 24 15 352 357 357 358 359 2 2 4 4 6 5 7 8 9 9 7 10 14 17 16 19 18 12 11 9 10 16
358 54 72 44 98 63 44 18 77 6 12 9 51 33 21 28 20 11 5 4 5 2 4 2 6 7 8 7 10 11 12 12 13 14 16 17 17 17 17 14 12 13 13 29
43 64 30 358 12 88 86 41 43 41 22 26 8 42 61 19 35 20 13 12 9 7 6 6 8 11 10 13 14 15 16 15 16 14 15 18 20 22 23 19 19 19 23 30